TimeCDT,TemperatureF,Dew PointF,Humidity,Sea Level PressureIn,VisibilityMPH,Wind Direction,Wind SpeedMPH,Gust SpeedMPH,PrecipitationIn,Events,Conditions,WindDirDegrees,DateUTC
12:13 AM,60.8,60.8,100,29.94,10.0,East,4.6,-,N/A,,Light Drizzle,90,2013-05-17 05:13:00
12:22 AM,60.8,60.8,100,29.94,10.0,East,3.5,-,N/A,,Overcast,90,2013-05-17 05:22:00
12:32 AM,60.8,60.8,100,29.94,10.0,East,4.6,-,N/A,,Overcast,100,2013-05-17 05:32:00
12:58 AM,61.2,60.8,99,29.93,10.0,SE,5.8,-,0.00,,Overcast,130,2013-05-17 05:58:00
1:18 AM,60.8,60.8,100,29.92,10.0,SSE,5.8,-,N/A,,Overcast,150,2013-05-17 06:18:00
1:39 AM,60.8,60.8,100,29.92,6.0,SE,6.9,-,N/A,,Light Drizzle,130,2013-05-17 06:39:00
1:49 AM,60.8,60.8,100,29.92,6.0,SE,6.9,-,N/A,,Overcast,140,2013-05-17 06:49:00
1:54 AM,60.8,60.8,100,29.91,8.0,SSE,6.9,-,N/A,,Overcast,150,2013-05-17 06:54:00
1:58 AM,60.8,60.8,100,29.91,8.0,SSE,6.9,-,0.00,,Overcast,150,2013-05-17 06:58:00
2:28 AM,60.8,60.8,100,29.91,7.0,SSE,4.6,-,N/A,,Overcast,150,2013-05-17 07:28:00
2:58 AM,60.8,60.8,100,29.90,5.0,SE,5.8,-,N/A,,Mostly Cloudy,140,2013-05-17 07:58:00
3:13 AM,60.8,60.8,100,29.90,1.8,SE,4.6,-,N/A,,Mostly Cloudy,140,2013-05-17 08:13:00
3:33 AM,60.8,60.8,100,29.90,1.8,SE,8.1,-,N/A,,Overcast,130,2013-05-17 08:33:00
3:38 AM,60.8,60.8,100,29.90,1.0,SE,8.1,-,N/A,,Mist,140,2013-05-17 08:38:00
3:43 AM,60.8,60.8,100,29.90,0.5,SE,8.1,-,N/A,Fog,Fog,140,2013-05-17 08:43:00
3:58 AM,60.8,60.8,100,29.89,1.0,SE,5.8,-,N/A,,Mist,140,2013-05-17 08:58:00
4:03 AM,60.8,60.8,100,29.90,2.0,SE,5.8,-,N/A,,Overcast,140,2013-05-17 09:03:00
4:08 AM,60.8,60.8,100,29.90,4.0,SE,5.8,-,N/A,,Overcast,130,2013-05-17 09:08:00
4:33 AM,62.6,62.6,100,29.90,9.0,SSE,5.8,-,N/A,,Overcast,150,2013-05-17 09:33:00
4:58 AM,61.7,61.7,100,29.89,6.0,SE,4.6,-,N/A,,Overcast,140,2013-05-17 09:58:00
5:53 AM,60.8,60.8,100,29.92,4.0,SE,5.8,-,N/A,,Overcast,130,2013-05-17 10:53:00
5:58 AM,61.5,61.5,100,29.91,4.0,SE,5.8,-,N/A,,Overcast,140,2013-05-17 10:58:00
6:08 AM,60.8,60.8,100,29.91,5.0,SE,5.8,-,N/A,,Overcast,140,2013-05-17 11:08:00
6:13 AM,60.8,60.8,100,29.92,5.0,SSE,4.6,-,N/A,,Mostly Cloudy,160,2013-05-17 11:13:00
6:28 AM,60.8,60.8,100,29.93,4.0,South,3.5,-,N/A,,Mostly Cloudy,180,2013-05-17 11:28:00
6:38 AM,60.8,60.8,100,29.93,2.5,SSW,2.3,-,N/A,,Mostly Cloudy,210,2013-05-17 11:38:00
6:48 AM,60.8,60.8,100,29.94,3.0,Calm,Calm,-,N/A,,Overcast,0,2013-05-17 11:48:00
6:58 AM,61.9,61.9,100,29.94,4.0,Calm,Calm,-,N/A,,Overcast,0,2013-05-17 11:58:00
7:28 AM,62.6,62.6,100,29.94,5.0,Calm,Calm,-,N/A,,Overcast,0,2013-05-17 12:28:00
7:33 AM,62.6,62.6,100,29.94,6.0,Calm,Calm,-,N/A,,Overcast,0,2013-05-17 12:33:00
7:58 AM,63.1,63.1,100,29.94,10.0,ESE,3.5,-,N/A,,Overcast,120,2013-05-17 12:58:00
8:28 AM,64.4,64.4,100,29.95,10.0,SSE,2.3,-,N/A,,Overcast,150,2013-05-17 13:28:00
8:58 AM,64.2,63.9,99,29.96,10.0,South,3.5,-,N/A,,Overcast,170,2013-05-17 13:58:00
9:43 AM,66.2,62.6,88,29.96,10.0,Calm,Calm,-,N/A,,Overcast,0,2013-05-17 14:43:00
9:58 AM,65.5,62.4,90,29.96,10.0,Calm,Calm,-,N/A,,Overcast,0,2013-05-17 14:58:00
10:38 AM,68.0,62.6,83,29.97,10.0,NNE,3.5,-,N/A,,Overcast,30,2013-05-17 15:38:00
10:58 AM,68.0,63.0,84,29.96,10.0,Calm,Calm,-,N/A,,Overcast,0,2013-05-17 15:58:00
11:08 AM,68.0,62.6,83,29.97,10.0,East,3.5,-,N/A,,Overcast,80,2013-05-17 16:08:00
11:13 AM,68.0,62.6,83,29.97,10.0,SE,4.6,-,N/A,,Overcast,140,2013-05-17 16:13:00
11:48 AM,68.0,62.6,83,29.97,10.0,East,1.2,-,N/A,,Overcast,80,2013-05-17 16:48:00
11:58 AM,68.0,62.8,83,29.96,10.0,SSE,3.5,-,N/A,,Overcast,150,2013-05-17 16:58:00
12:53 PM,69.8,62.6,78,29.96,10.0,SE,4.6,-,N/A,,Overcast,130,2013-05-17 17:53:00
12:58 PM,69.3,63.3,81,29.95,10.0,ESE,5.8,-,N/A,,Overcast,110,2013-05-17 17:58:00
1:58 PM,72.0,64.6,77,29.94,10.0,ESE,6.9,-,N/A,,Overcast,110,2013-05-17 18:58:00
2:39 PM,73.4,64.4,73,29.95,10.0,SE,8.1,-,N/A,,Overcast,130,2013-05-17 19:39:00
2:44 PM,73.4,64.4,73,29.95,10.0,ESE,8.1,-,N/A,,Overcast,120,2013-05-17 19:44:00
2:58 PM,73.6,64.0,72,29.93,10.0,SE,5.8,-,N/A,,Overcast,140,2013-05-17 19:58:00
3:58 PM,75.9,64.6,68,29.92,10.0,ESE,6.9,-,N/A,,Overcast,120,2013-05-17 20:58:00
4:58 PM,75.0,64.8,70,29.91,10.0,SE,5.8,-,N/A,,Partly Cloudy,140,2013-05-17 21:58:00
5:58 PM,76.8,63.5,63,29.91,10.0,SE,6.9,-,N/A,,Mostly Cloudy,130,2013-05-17 22:58:00
6:58 PM,74.8,64.9,71,29.91,10.0,ESE,5.8,-,N/A,,Partly Cloudy,110,2013-05-17 23:58:00
7:58 PM,72.3,65.3,78,29.91,10.0,SE,6.9,-,N/A,,Clear,130,2013-05-18 00:58:00
8:58 PM,67.8,64.9,90,29.93,10.0,SE,4.6,-,N/A,,Clear,130,2013-05-18 01:58:00
9:58 PM,66.2,64.9,96,29.95,10.0,SE,5.8,-,N/A,,Clear,140,2013-05-18 02:58:00
10:39 PM,64.4,64.4,100,29.97,10.0,SSE,4.6,-,N/A,,Light Drizzle,150,2013-05-18 03:39:00
10:49 PM,64.4,64.4,100,29.97,10.0,SSE,4.6,-,N/A,,Clear,150,2013-05-18 03:49:00
10:58 PM,64.0,64.0,100,29.96,10.0,SSE,3.5,-,0.00,,Clear,160,2013-05-18 03:58:00
11:20 PM,64.4,64.4,100,29.97,10.0,SE,5.8,-,N/A,,Light Drizzle,140,2013-05-18 04:20:00
11:29 PM,64.4,64.4,100,29.97,10.0,SE,6.9,-,N/A,,Clear,130,2013-05-18 04:29:00
11:58 PM,63.3,63.3,100,29.96,10.0,SE,5.8,-,0.00,,Clear,140,2013-05-18 04:58:00